Flag for Norway Weather past 2 weeks in Langesund, Norway

Now
43 °F

Quite cool.


Feels Like: 43 °F
Forecast: 31 / 52 °F
Wind: 2 mph from Southeast

Location: Jomfruland Fyr

Current Time: Apr 27, 2015 at 10:15:19 AM

Latest Report: Apr 27, 2015 at 9:00 AM


Visibility: N/A

Pressure: 29.64 "Hg

Humidity: 56%

Dew point: 28 °F

Location of LangesundLocation

Historic Weather in Langesund — Graph

°F

Langesund temperature yesterday

Maximum temperature yesterday: 50 °F (at 8:00 PM)
Minimum temperature yesterday: 38 °F (at 6:00 AM)
Average temperature yesterday: 45 °F

Past Weeks' High & Low Weather Summary

 TemperatureHumidityPressure
High67 °F (Apr 20, 6:00 PM)96% (Apr 15, 3:00 PM)30.37 "Hg (Apr 15, 3:00 PM)
Low35 °F (Apr 14, 7:00 AM)17% (Apr 20, 6:00 PM)29.38 "Hg (Apr 25, 7:00 PM)
Average47 °F61%29.92 "Hg
* Reported Apr 12 9:00 AM — Apr 27 9:00 AM, Langesund, Weather by CustomWeather, © 2015

Note: Actual official high and low records may vary slightly from our data, if they occured in-between our weather recording intervals... More about our weather records

Advertising

Langesund weather history for previous 24 hours

 ConditionsComfort  
Time TempWeatherWind HumidityBarometerVisibility
9:00 AM
Mon, Apr 27
43 °FQuite cool.2 mph56%29.64 "HgN/A
8:00 AM42 °FQuite cool.1 mph57%29.64 "HgN/A
7:00 AM38 °FChilly.1 mph68%29.63 "HgN/A
6:00 AM37 °FChilly.2 mph71%29.63 "HgN/A
5:00 AM37 °FChilly.2 mph73%29.63 "HgN/A
4:00 AM38 °FChilly.2 mph70%29.64 "HgN/A
3:00 AM37 °FChilly.1 mph73%29.64 "HgN/A
2:00 AM40 °FChilly.2 mph64%29.64 "HgN/A
1:00 AM41 °FQuite cool.2 mph61%29.64 "HgN/A
12:00 AM42 °FQuite cool.2 mph60%29.64 "HgN/A
11:00 PM
Sun, Apr 26
44 °FQuite cool.3 mph54%29.64 "HgN/A
10:00 PM45 °FCool.5 mph53%29.63 "HgN/A
9:00 PM47 °FCool.6 mph45%29.62 "HgN/A
8:00 PM50 °FCool.6 mph38%29.60 "HgN/A
7:00 PM50 °FCool.5 mph52%29.59 "HgN/A
6:00 PM47 °FCool.12 mph76%29.59 "HgN/A
5:00 PM46 °FCool.12 mph77%29.59 "HgN/A
4:00 PM47 °FCool.13 mph72%29.58 "HgN/A
3:00 PM47 °FCool.13 mph72%29.59 "HgN/A
2:00 PM48 °FCool.12 mph69%29.59 "HgN/A
1:00 PM47 °FCool.12 mph71%29.58 "HgN/A
12:00 PM47 °FCool.10 mph66%29.58 "HgN/A
11:00 AM47 °FCool.7 mph62%29.58 "HgN/A
10:00 AM46 °FCool.6 mph62%29.58 "HgN/A
Weather by CustomWeather, © 2015

See weather overviewHow to use our weather pages